| time (UTC) | temp F | wind direction | speed MPH | gust MPH | rain 1hr in | rain 24hr in | rain mn in | humidity % | barometer mb |
| 20260510201548 | 0 | 197 | 0.0 | 1.0 | 0.00 | 0.00 | 0.00 | 1007.9 | |
| 20260510200003 | 0 | 197 | 1.0 | 3.0 | 0.00 | 0.00 | 0.00 | 1007.9 | |
| 20260510194552 | 0 | 197 | 3.0 | 5.0 | 0.00 | 0.00 | 0.00 | 1008.1 | |
| 20260510193008 | 0 | 197 | 3.0 | 5.0 | 0.00 | 0.00 | 0.00 | 1008.1 | |
| 20260510190043 | 0 | 197 | 4.0 | 7.0 | 0.00 | 0.00 | 0.00 | 1008.1 | |
| 20260510184537 | 0 | 197 | 5.0 | 10.0 | 0.00 | 0.00 | 0.00 | 1008.3 | |
| 20260510183030 | 0 | 197 | 7.0 | 13.0 | 0.00 | 0.00 | 0.00 | 1008.4 | |
| 20260510181525 | 0 | 197 | 5.0 | 13.0 | 0.00 | 0.00 | 0.00 | 1008.5 | |
| 20260510180021 | 0 | 197 | 9.0 | 12.0 | 0.00 | 0.00 | 0.00 | 1008.5 | |
| 20260510174516 | 0 | 197 | 9.0 | 13.0 | 0.00 | 0.00 | 0.00 | 1008.7 | |
| 20260510173011 | 0 | 197 | 6.0 | 12.0 | 0.00 | 0.00 | 0.00 | 1008.9 | |
| 20260510171504 | 0 | 195 | 9.0 | 15.0 | 0.00 | 0.00 | 0.00 | 1009.0 | |
| 20260510170104 | 0 | 197 | 8.0 | 14.0 | 0.00 | 0.00 | 0.00 | 1009.0 | |
| 20260510164539 | 0 | 196 | 6.0 | 12.0 | 0.00 | 0.00 | 0.00 | 1008.9 | |
| 20260510163034 | 0 | 197 | 9.0 | 17.0 | 0.00 | 0.00 | 0.00 | 1009.4 | |
| 20260510161514 | 0 | 197 | 8.0 | 15.0 | 0.00 | 0.00 | 0.00 | 1009.7 | |
| 20260510160004 | 0 | 197 | 10.0 | 18.0 | 0.00 | 0.00 | 0.00 | 1009.7 | |
| 20260510154610 | 0 | 196 | 10.0 | 16.0 | 0.00 | 0.00 | 0.00 | 1009.8 | |
| 20260510153044 | 0 | 196 | 8.0 | 15.0 | 0.00 | 0.00 | 0.00 | 1009.9 | |
| 20260510151540 | 0 | 197 | 7.0 | 14.0 | 0.00 | 0.00 | 0.00 | 1010.0 | |
| 20260510150032 | 0 | 196 | 11.0 | 18.0 | 0.00 | 0.00 | 0.00 | 1010.2 | |
| 20260510144529 | 0 | 196 | 10.0 | 18.0 | 0.00 | 0.00 | 0.00 | 1010.4 | |
| 20260510143030 | 0 | 196 | 9.0 | 19.0 | 0.00 | 0.00 | 0.00 | 1010.6 | |
| 20260510141520 | 0 | 196 | 9.0 | 18.0 | 0.00 | 0.00 | 0.00 | 1010.6 | |
| 20260510140014 | 0 | 196 | 9.0 | 14.0 | 0.00 | 0.00 | 0.00 | 1010.8 | |
| 20260510134512 | 0 | 197 | 6.0 | 15.0 | 0.00 | 0.00 | 0.00 | 1010.9 | |
| 20260510133012 | 0 | 196 | 9.0 | 15.0 | 0.00 | 0.00 | 0.00 | 1011.0 | |
| 20260510131559 | 0 | 197 | 9.0 | 17.0 | 0.00 | 0.00 | 0.00 | 1011.3 | |
| 20260510130008 | 0 | 197 | 6.0 | 14.0 | 0.00 | 0.00 | 0.00 | 1011.3 | |
| 20260510124503 | 0 | 200 | 9.0 | 19.0 | 0.00 | 0.00 | 0.00 | 1011.3 | |
| 20260510123059 | 0 | 196 | 7.0 | 13.0 | 0.00 | 0.00 | 0.00 | 1011.5 | |
| 20260510121519 | 0 | 196 | 8.0 | 17.0 | 0.00 | 0.00 | 0.00 | 1011.7 | |
| 20260510120015 | 0 | 196 | 8.0 | 18.0 | 0.00 | 0.00 | 0.00 | 1011.7 | |
| 20260510114509 | 0 | 196 | 9.0 | 17.0 | 0.00 | 0.00 | 0.00 | 1011.7 | |
| 20260510113005 | 0 | 197 | 9.0 | 18.0 | 0.00 | 0.00 | 0.00 | 1011.7 | |
| 20260510111547 | 0 | 197 | 8.0 | 17.0 | 0.00 | 0.00 | 0.00 | 1011.8 | |
| 20260510110035 | 0 | 197 | 7.0 | 15.0 | 0.00 | 0.00 | 0.00 | 1011.9 | |
| 20260510104604 | 0 | 197 | 12.0 | 17.0 | 0.00 | 0.00 | 0.00 | 1012.1 | |
| 20260510103035 | 0 | 198 | 11.0 | 20.0 | 0.00 | 0.00 | 0.00 | 1012.1 | |
| 20260510101533 | 0 | 197 | 9.0 | 16.0 | 0.00 | 0.00 | 0.00 | 1012.3 | |
| 20260510100058 | 0 | 197 | 12.0 | 19.0 | 0.00 | 0.00 | 0.00 | 1012.4 | |
| 20260510094555 | 0 | 197 | 9.0 | 20.0 | 0.00 | 0.00 | 0.00 | 1012.5 | |
| 20260510093003 | 0 | 197 | 12.0 | 18.0 | 0.00 | 0.00 | 0.00 | 1012.7 | |
| 20260510091558 | 0 | 197 | 11.0 | 18.0 | 0.00 | 0.00 | 0.00 | 1012.7 | |
| 20260510090107 | 0 | 198 | 10.0 | 19.0 | 0.00 | 0.00 | 0.00 | 1012.8 | |
| 20260510084521 | 0 | 197 | 11.0 | 20.0 | 0.00 | 0.00 | 0.00 | 1012.8 | |
| 20260510083108 | 0 | 197 | 11.0 | 17.0 | 0.00 | 0.00 | 0.00 | 1012.7 | |
| 20260510081533 | 0 | 198 | 8.0 | 20.0 | 0.00 | 0.00 | 0.00 | 1012.6 | |
| 20260510080030 | 0 | 197 | 8.0 | 19.0 | 0.00 | 0.00 | 0.00 | 1012.6 | |
| 20260510074525 | 0 | 197 | 8.0 | 16.0 | 0.00 | 0.00 | 0.00 | 1012.5 | |
| 20260510073021 | 0 | 196 | 8.0 | 17.0 | 0.00 | 0.00 | 0.00 | 1012.6 | |
| 20260510071521 | 0 | 197 | 8.0 | 15.0 | 0.00 | 0.00 | 0.00 | 1012.4 | |
| 20260510070015 | 0 | 196 | 8.0 | 13.0 | 0.00 | 0.00 | 0.00 | 1012.5 | |
| 20260510064607 | 0 | 197 | 7.0 | 12.0 | 0.00 | 0.00 | 0.00 | 1012.5 | |
| 20260510063053 | 0 | 197 | 9.0 | 15.0 | 0.00 | 0.00 | 0.00 | 1012.3 | |
| 20260510061545 | 0 | 197 | 8.0 | 13.0 | 0.00 | 0.00 | 0.00 | 1012.3 | |
| 20260510060035 | 0 | 197 | 7.0 | 16.0 | 0.00 | 0.00 | 0.00 | 1012.3 | |
| 20260510054531 | 0 | 197 | 7.0 | 12.0 | 0.00 | 0.00 | 0.00 | 1012.3 | |
| 20260510053026 | 0 | 197 | 8.0 | 14.0 | 0.00 | 0.00 | 0.00 | 1012.3 | |
| 20260510051522 | 0 | 200 | 10.0 | 15.0 | 0.00 | 0.00 | 0.00 | 1012.3 | |
| 20260510050017 | 0 | 197 | 6.0 | 14.0 | 0.00 | 0.00 | 0.00 | 1012.5 | |
| 20260510044512 | 0 | 197 | 6.0 | 16.0 | 0.00 | 0.00 | 0.00 | 1012.4 | |
| 20260510043010 | 0 | 198 | 6.0 | 15.0 | 0.00 | 0.00 | 0.00 | 1012.4 | |
| 20260510041502 | 0 | 197 | 11.0 | 17.0 | 0.00 | 0.00 | 0.00 | 1012.5 | |
| 20260510040020 | 0 | 196 | 10.0 | 15.0 | 0.00 | 0.00 | 0.00 | 1012.6 | |
| 20260510034602 | 0 | 196 | 8.0 | 15.0 | 0.00 | 0.00 | 0.00 | 1012.6 | |
| 20260510033059 | 0 | 197 | 9.0 | 16.0 | 0.00 | 0.00 | 0.00 | 1012.7 | |
| 20260510031549 | 0 | 198 | 12.0 | 17.0 | 0.00 | 0.00 | 0.00 | 1012.8 | |
| 20260510030035 | 0 | 197 | 10.0 | 21.0 | 0.00 | 0.00 | 0.00 | 1012.9 | |
| 20260510024521 | 0 | 198 | 8.0 | 15.0 | 0.00 | 0.00 | 0.00 | 1012.7 | |
| 20260510023017 | 0 | 197 | 11.0 | 18.0 | 0.00 | 0.00 | 0.00 | 1012.8 | |
| 20260510021514 | 0 | 197 | 11.0 | 17.0 | 0.00 | 0.00 | 0.00 | 1012.7 | |
| 20260510020008 | 0 | 197 | 10.0 | 16.0 | 0.00 | 0.00 | 0.00 | 1012.7 | |
| 20260510014503 | 0 | 196 | 9.0 | 13.0 | 0.00 | 0.00 | 0.00 | 1012.7 | |
| 20260510013056 | 0 | 197 | 11.0 | 15.0 | 0.00 | 0.00 | 0.00 | 1012.6 | |
| 20260510011557 | 0 | 198 | 11.0 | 16.0 | 0.00 | 0.00 | 0.00 | 1012.6 | |
| 20260510010101 | 0 | 197 | 12.0 | 16.0 | 0.00 | 0.00 | 0.00 | 1012.7 | |
| 20260510004543 | 0 | 198 | 11.0 | 17.0 | 0.00 | 0.00 | 0.00 | 1012.7 | |
| 20260510003038 | 0 | 196 | 10.0 | 17.0 | 0.00 | 0.00 | 0.00 | 1012.7 | |
| 20260510001502 | 0 | 197 | 10.0 | 18.0 | 0.00 | 0.00 | 0.00 | 1012.8 | |
| 20260510000058 | 0 | 197 | 13.0 | 19.0 | 0.00 | 0.00 | 0.00 | 1012.8 | |
| 20260509234613 | 0 | 197 | 10.0 | 19.0 | 0.00 | 0.00 | 0.00 | 1013.0 | |
| 20260509233048 | 0 | 197 | 14.0 | 21.0 | 0.00 | 0.00 | 0.00 | 1012.9 | |
| 20260509231544 | 0 | 197 | 10.0 | 16.0 | 0.00 | 0.00 | 0.00 | 1012.8 | |
| 20260509230038 | 0 | 197 | 8.0 | 17.0 | 0.00 | 0.00 | 0.00 | 1012.8 | |
| 20260509224543 | 0 | 197 | 13.0 | 19.0 | 0.00 | 0.00 | 0.00 | 1012.7 | |
| 20260509223046 | 0 | 197 | 14.0 | 18.0 | 0.00 | 0.00 | 0.00 | 1012.7 | |
| 20260509221542 | 0 | 197 | 11.0 | 17.0 | 0.00 | 0.00 | 0.00 | 1012.7 | |
| 20260509220036 | 0 | 196 | 11.0 | 17.0 | 0.00 | 0.00 | 0.00 | 1012.6 | |
| 20260509214531 | 0 | 198 | 11.0 | 18.0 | 0.00 | 0.00 | 0.00 | 1012.7 | |
| 20260509213024 | 0 | 197 | 10.0 | 18.0 | 0.00 | 0.00 | 0.00 | 1012.6 | |
| 20260509211549 | 0 | 197 | 9.0 | 19.0 | 0.00 | 0.00 | 0.00 | 1012.4 | |
| 20260509210035 | 0 | 197 | 12.0 | 18.0 | 0.00 | 0.00 | 0.00 | 1012.4 | |
| 20260509204531 | 0 | 198 | 9.0 | 14.0 | 0.00 | 0.00 | 0.00 | 1012.3 | |
| 20260509203114 | 0 | 197 | 10.0 | 16.0 | 0.00 | 0.00 | 0.00 | 1012.2 |